This demonstration page uses our WeatherBlox Daily Observations layout. Learn more.

38.88101, -77.10428

Hourly Observations for August 31, 2018

Temp ( °F °C ) Dew Point ( °F °C ) Humidity (%) Winds ( mph kmh ) Pressure ( in mb ) Visibility ( mi km ) Precip ( " mm )
12:52 am 00:52 Mostly Cloudy with Light Rain 82 27.8 71 21.7 69 69 WSW 7 11 30.12 1020 8 12.87472 0 0.0254
1:03 am 01:03 Cloudy with Light Rain 81 27.2 72 22.2 74 74 WNW 9 15 30.12 1020 5 8.0467 0.08 2.032
1:52 am 01:52 Cloudy with Light Rain 79 26.1 74 23.3 85 85 NNE 3 6 30.1 1019 10 16.0934 0.08 2.032
2:52 am 02:52 Cloudy 80 26.7 72 22.2 76 76 Calm 30.1 1019 10 16.0934 0 0.0254
3:52 am 03:52 Cloudy 79 26.1 73 22.8 82 82 E 5 7 30.1 1019 10 16.0934 0 0
4:52 am 04:52 Mostly Cloudy 80 26.7 72 22.2 76 76 Calm 30.11 1020 10 16.0934 0 0
5:52 am 05:52 Mostly Cloudy 79 26.1 72 22.2 79 79 Calm 30.12 1020 10 16.0934 0 0
6:52 am 06:52 Mostly Cloudy 79 26.1 72 22.2 79 79 Calm 30.13 1020 10 16.0934 0 0
7:52 am 07:52 Mostly Cloudy 80 26.7 72 22.2 76 76 Calm 30.14 1021 10 16.0934 0 0
8:52 am 08:52 Partly Cloudy 81 27.2 72 22.2 74 74 ENE 3 6 30.15 1021 10 16.0934 0 0
8:58 am 08:58 Mostly Cloudy 81 27.2 72 22.2 74 74 ENE 3 6 30.15 1021 10 16.0934 0 0
9:21 am 09:21 Mostly Cloudy 83 28.3 73 22.8 72 72 NE 3 6 30.15 1021 10 16.0934 0 0
9:52 am 09:52 Mostly Cloudy 83 28.3 73 22.8 72 72 Calm 30.16 1021 10 16.0934 0 0
10:31 am 10:31 Mostly Cloudy 83 28.3 74 23.3 74 74 S 6 9 30.18 1022 10 16.0934 0 0
10:46 am 10:46 Mostly Cloudy 82 28 73 23 74 74 Calm 30.18 1022 10 16.0934 0 0
10:52 am 10:52 Mostly Cloudy 83 28.3 73 22.8 72 72 Calm 30.16 1022 10 16.0934 0 0
11:52 am 11:52 Mostly Cloudy 86 30 75 23.9 70 70 S 12 19 30.15 1021 10 16.0934 0 0
12:52 pm 12:52 Partly Cloudy 89 31.7 72 22.2 57 57 S 13 20 30.14 1021 10 16.0934 0 0
1:17 pm 13:17 Partly Cloudy 88 31.1 70 21.1 55 55 S 14 22 30.15 1021 10 16.0934 0 0
1:52 pm 13:52 Mostly Cloudy 88 31.1 69 20.6 54 54 S 13 20 30.14 1021 10 16.0934 0 0
2:52 pm 14:52 Mostly Cloudy 89 31.7 70 21.1 53 53 S 12 19 30.14 1021 10 16.0934 0 0
3:52 pm 15:52 Partly Cloudy 89 31.7 70 21.1 53 53 S 10 17 30.13 1020 10 16.0934 0 0
4:52 pm 16:52 Partly Cloudy 89 31.7 70 21.1 53 53 S 10 17 30.1 1019 10 16.0934 0 0
5:52 pm 17:52 Partly Cloudy 88 31.1 71 21.7 57 57 S 10 17 30.1 1019 10 16.0934 0 0
6:52 pm 18:52 Mostly Cloudy 86 30 72 22.2 63 63 S 9 15 30.11 1020 10 16.0934 0 0
7:32 pm 19:32 Mostly Cloudy 85 29.4 73 22.8 68 68 ESE 9 15 30.12 1020 10 16.0934 0 0
7:52 pm 19:52 Mostly Cloudy 84 28.9 73 22.8 70 70 ESE 10 17 30.13 1020 10 16.0934 0 0
8:26 pm 20:26 Mostly Cloudy 84 28.9 73 22.8 70 70 ESE 9 15 30.15 1021 10 16.0934 0 0
8:52 pm 20:52 Mostly Cloudy 82 27.8 74 23.3 77 77 E 14 22 30.15 1021 10 16.0934 0 0
9:13 pm 21:13 Cloudy with Thunderstorms 81 27.2 74 23.3 79 79 ENE 17 28 30.15 1021 10 16.0934 0 0
9:52 pm 21:52 Cloudy with Light Thunderstorms 80 26.7 74 23.3 82 82 ENE 16 26 30.18 1022 10 16.0934 0 0.0254
10:10 pm 22:10 Cloudy with Light Rain 79 26.1 73 22.8 82 82 E 14 22 30.18 1022 10 16.0934 0.01 0.254
10:18 pm 22:18 Cloudy with Light Thunderstorms 78 25.6 74 23.3 87 87 ENE 17 28 30.18 1022 10 16.0934 0.01 0.254
10:28 pm 22:28 Cloudy with Heavy Thunderstorms 78 25.6 74 23.3 87 87 NNE 15 24 30.18 1022 4 6.43736 0.06 1.524
10:52 pm 22:52 Cloudy with Thunderstorms 76 24.4 72 22.2 88 88 NE 13 20 30.2 1023 7 11.26538 0.18 4.572
10:58 pm 22:58 Cloudy with Thunderstorms 76 24.4 72 22.2 88 88 NNE 14 22 30.21 1023 6 9.65604 0.03 0.762
11:29 pm 23:29 Cloudy with Light Thunderstorms 76 24.4 71 21.7 85 85 Calm 30.21 1023 10 16.0934 0.04 1.016
11:52 pm 23:52 Cloudy with Heavy Thunderstorms 77 25 71 21.7 82 82 ESE 8 13 30.19 1023 6 9.65604 0.07 1.778

Powered by AerisWeather